Wetbulb
58.61 52.80 51.86 54.65 56.81 56.43 56.62 55.74 54.84 57.57 60.84 59.42 59.10 59.31 62.17 64.30 64.75 64.36 64.13 64.64 65.63 66.14 68.11 69.12 70.55 71.33 70.50 70.11 72.07 73.09 71.90 73.05 73.12 73.40 72.83 72.75 72.78 73.13 73.24 72.70 73.17 73.45 73.76 72.87
55.14 52.16 56.51 58.88 59.40 57.71 56.82 55.00 55.01 56.80 57.26 54.62 58.81 59.78 62.53 63.79 64.04 64.52 64.73 64.88 65.97 66.64 67.53 68.72 68.94 71.67 71.59 72.27 73.48 73.17 73.75 74.80 74.04 74.16 73.32 73.53 72.90 73.79 74.00 73.99 74.29 75.61 74.33 73.67
52.87 55.35 59.01 57.79 57.36 55.73 53.26 50.86 53.54 54.29 56.29 55.33 55.09 56.56 60.13 63.14 64.36 65.09 65.64 66.43 66.57 66.76 67.39 68.00 68.55 69.35 72.32 72.46 73.28 73.76 74.58 75.64 74.83 74.91 75.62 74.79 73.80 73.67 72.86 73.55 73.72 74.47 75.34 74.80
53.05 57.86 57.53 57.01 56.75 55.78 49.12 57.13 57.53 56.69 51.05 47.08 53.21 44.57 56.23 58.66 59.48 63.03 63.56 64.94 65.81 67.49 68.67 68.21 68.55 68.63 69.32 72.99 74.77 75.12 76.02 76.36 75.52 75.64 74.98 73.73 72.81 71.84 72.53 72.90 74.53 74.56 75.46 76.00
50.64 53.77 55.07 54.67 56.52 56.91 55.16 58.30 57.52 56.51 49.21 46.32 50.03 51.61 53.13 54.79 55.25 57.66 59.11 63.51 66.82 64.80 64.30 64.69 65.39 68.41 68.10 71.36 74.28 76.12 76.59 76.88 76.54 77.12 76.09 75.02 73.30 73.80 73.62 72.73 73.64 73.40 74.29 75.34
52.08 56.11 55.70 56.48 59.61 56.99 58.62 55.76 54.24 52.17 48.26 42.26 47.96 52.62 51.75 52.46 54.94 56.04 58.84 63.07 62.73 63.28 64.95 66.44 67.71 67.01 68.43 70.68 72.97 77.22 76.30 75.86 75.53 76.57 76.21 74.94 74.24 73.56 73.12 72.88 72.21 72.20 73.26 73.86
50.54 51.92 54.24 57.61 54.81 56.00 54.89 50.31 42.66 42.21 42.43 42.39 50.31 52.39 51.53 57.57 58.02 59.86 60.46 61.97 63.61 64.36 62.02 64.74 65.75 65.43 69.87 71.32 75.02 75.52 75.05 74.44 75.29 75.14 74.93 74.86 73.82 73.52 73.59 72.74 71.37 72.09 71.97 73.04
44.82 45.08 51.25 55.50 55.66 52.47 52.80 49.83 42.97 40.04 41.91 46.96 49.64 47.82 53.07 58.20 59.02 58.95 60.57 64.60 61.90 60.45 62.09 62.76 64.09 64.96 72.06 74.06 74.75 75.39 75.09 74.59 74.54 74.62 74.62 74.34 74.59 73.64 73.11 72.88 72.77 72.11 71.71 72.92
45.01 46.89 54.01 55.45 58.59 56.16 52.21 47.78 51.33 46.99 47.11 43.93 48.86 51.94 58.01 61.19 60.00 63.53 64.57 63.66 62.44 62.84 62.79 64.21 65.55 68.87 72.22 73.31 74.60 75.21 74.72 74.63 74.26 74.62 74.46 74.44 73.57 72.74 72.48 72.54 73.21 73.33 73.12 73.82
49.33 44.10 51.96 53.98 57.61 55.77 52.99 54.94 47.92 47.16 40.53 41.99 47.57 50.00 50.74 57.22 59.11 63.29 63.59 62.89 65.77 67.52 67.85 68.50 69.17 68.83 69.57 71.94 72.90 73.89 73.55 71.60 71.40 73.93 73.03 73.74 73.27 73.66 73.07 72.28 72.25 73.08 73.15 73.45
49.36 44.39 47.78 52.97 51.98 50.63 50.15 49.37 50.13 48.25 46.14 43.25 43.55 47.39 57.11 57.45 59.15 58.81 61.79 60.82 65.16 67.06 67.44 68.11 69.83 70.10 69.94 70.40 70.71 71.13 70.25 68.33 67.99 69.06 68.43 68.91 71.20 69.81 69.72 70.03 70.29 71.06 71.88 72.35
50.66 45.03 43.42 48.45 56.29 57.21 54.23 53.25 50.04 44.70 43.93 47.21 46.34 47.35 57.02 58.13 59.93 60.89 64.50 65.03 67.20 67.13 66.45 66.28 69.50 68.35 67.95 67.07 67.92 67.75 67.80 66.73 66.41 66.36 66.59 67.54 68.34 68.16 67.66 68.00 68.54 69.93 70.59 71.32
49.92 44.59 41.86 46.35 52.78 56.34 51.42 52.04 52.63 49.34 49.15 44.35 45.32 48.49 58.80 60.04 59.00 61.37 60.26 61.30 66.01 65.11 62.90 64.58 66.50 66.17 66.42 66.11 64.84 64.29 64.89 65.52 65.87 65.87 65.61 67.33 67.07 66.81 66.40 66.37 65.85 66.83 67.17 67.75
56.48 46.68 48.23 45.37 49.91 53.35 50.72 52.17 52.51 49.33 44.48 47.23 48.75 51.09 53.94 57.17 59.16 58.94 60.33 61.42 64.84 64.71 64.52 65.22 63.96 64.51 62.95 63.23 62.73 63.99 64.86 64.39 64.80 65.01 65.16 63.92 63.22 63.28 63.22 63.28 63.39 63.69 64.38 64.69
51.05 45.99 51.38 52.22 54.59 54.61 52.78 52.50 53.94 51.06 48.42 48.31 50.00 51.55 53.90 55.15 57.07 58.64 60.29 60.61 64.75 63.06 63.54 63.96 62.76 62.73 62.83 62.60 63.41 63.35 63.54 64.52 64.57 63.15 61.84 61.18 62.01 62.13 61.49 60.89 61.02 61.45 61.99 61.79
50.82 48.52 53.33 49.69 54.05 54.87 53.61 52.95 52.40 54.60 54.88 53.96 53.18 52.80 59.17 61.01 60.36 63.19 63.44 64.14 62.46 62.09 62.46 62.17 62.69 62.12 62.06 62.68 62.41 62.87 63.38 62.14 61.95 60.40 59.93 60.01 59.06 59.25 59.41 60.18 60.16 59.96 59.12 59.41
48.75 50.37 50.01 46.78 52.10 52.31 48.53 52.13 52.80 55.84 56.43 54.51 50.62 54.59 58.74 60.06 62.98 62.77 63.47 63.25 62.53 62.29 62.38 61.67 61.50 59.98 60.47 60.95 61.07 60.81 61.47 61.21 59.15 58.24 58.70 58.77 58.61 58.34 57.96 57.90 57.96 58.27 57.34 57.74
49.37 48.60 49.93 46.51 48.87 42.64 51.45 55.91 56.68 54.92 58.10 60.80 60.59 60.66 61.44 62.46 63.09 63.67 63.51 62.28 61.90 61.85 61.13 60.54 59.97 59.84 60.08 59.93 60.66 58.57 58.61 58.19 57.73 57.28 57.20 56.71 56.72 57.58 58.06 58.95 59.64 58.98 58.99 58.29
52.04 50.60 48.15 49.05 47.19 51.71 55.67 55.45 55.21 53.78 55.23 62.06 61.27 62.52 63.38 63.83 63.05 61.08 63.52 62.78 61.25 60.92 60.21 59.82 61.17 60.47 59.21 57.80 57.55 57.23 57.86 57.02 56.02 55.12 55.04 56.92 57.83 58.32 58.08 57.32 57.23 57.95 58.03 57.18
50.79 52.31 50.54 50.34 47.45 45.42 52.79 56.92 58.34 58.16 50.05 60.74 62.54 61.69 61.52 61.51 55.14 56.20 60.74 61.84 60.84 60.43 59.78 59.39 60.38 58.70 56.29 55.48 55.43 56.99 55.75 54.59 54.02 56.10 56.84 57.84 57.35 57.14 57.11 57.05 56.95 57.84 57.63 56.09
48.13 48.90 48.44 50.15 48.48 50.17 56.93 57.05 58.07 49.40 51.28 59.09 61.20 61.42 61.19 57.81 58.34 59.50 61.29 60.49 60.37 59.45 59.38 59.67 57.48 55.42 54.99 55.50 56.18 55.48 54.47 53.27 56.13 56.87 56.56 56.64 56.43 57.15 56.84 55.93 56.11 55.76 55.91 55.46
49.15 49.76 48.05 50.75 47.54 45.28 58.89 57.34 53.34 57.13 59.37 59.37 61.74 62.13 60.62 60.20 60.43 60.62 60.17 59.32 58.96 58.10 56.70 56.11 53.61 53.34 54.21 55.07 55.12 55.10 53.82 54.48 56.35 56.19 56.20 55.25 56.20 55.34 55.75 54.98 54.33 54.12 53.50 52.74
51.19 54.46 52.94 53.62 51.91 57.30 58.42 58.28 60.26 60.32 59.26 61.49 62.13 62.27 61.94 60.67 59.97 59.69 58.33 57.78 57.16 54.26 53.02 53.30 52.76 52.24 52.71 54.27 55.26 55.32 55.18 54.80 54.98 54.61 54.43 54.76 55.42 54.84 53.92 53.89 53.13 52.54 52.06 49.70
58.89 60.22 52.87 53.63 56.73 58.13 59.67 60.15 60.41 61.55 61.42 63.65 63.72 62.92 62.28 60.35 60.31 58.86 58.25 55.87 53.02 52.45 51.56 51.67 51.22 51.00 51.61 53.71 55.20 55.75 55.37 54.71 53.88 53.92 53.94 52.64 52.29 52.45 52.61 54.24 54.00 52.87 50.34 48.89
56.28 56.99 56.88 55.41 57.37 60.05 61.48 62.32 61.58 62.10 62.74 62.47 62.59 62.91 61.69 60.66 58.86 57.53 54.74 53.21 52.71 51.83 51.68 51.46 50.67 50.47 50.86 53.27 52.79 53.50 54.35 54.71 54.02 53.67 50.41 50.68 50.69 50.29 50.90 51.31 51.15 51.05 52.39 49.08
57.46 55.06 54.16 53.61 58.50 59.09 59.34 61.27 62.88 61.75 61.48 61.67 60.89 60.51 60.49 60.25 57.85 55.57 54.04 53.35 52.46 52.01 52.02 51.37 50.83 50.76 50.91 52.31 52.32 52.89 53.73 54.38 53.63 52.85 50.96 50.18 50.14 50.09 50.91 50.45 50.44 51.49 49.99 48.40
MSLP
1000.80 1001.25 1000.76 1000.28 999.98 999.44 999.66 999.76 999.51 999.65 1000.01 1000.92 1001.81 1002.44 1002.75 1003.01 1003.62 1004.21 1004.80 1005.37 1005.97 1006.37 1006.92 1007.38 1008.26 1009.03 1009.67 1010.28 1010.38 1010.44 1010.68 1011.03 1011.54 1012.31 1012.94 1013.34 1013.45 1013.46 1013.51 1013.40 1013.45 1013.65 1013.91 1014.34
1001.15 1000.84 1000.13 999.85 999.50 999.36 999.26 999.33 999.18 999.14 999.28 999.88 1001.24 1001.91 1002.27 1002.45 1002.87 1003.23 1004.00 1004.59 1005.30 1006.11 1006.94 1007.49 1007.93 1008.69 1009.70 1010.05 1010.08 1010.19 1010.35 1010.72 1011.05 1011.54 1012.19 1012.57 1012.80 1013.04 1013.02 1012.93 1013.09 1013.02 1013.28 1013.50
1001.00 1000.22 999.62 999.34 998.97 998.71 998.42 998.48 998.62 998.88 999.08 999.67 1000.63 1002.01 1002.59 1002.37 1002.57 1002.81 1002.97 1003.73 1004.77 1005.60 1007.22 1007.50 1007.93 1008.38 1008.79 1009.60 1009.99 1009.98 1010.05 1010.29 1010.65 1010.89 1011.61 1012.13 1012.46 1012.90 1013.01 1013.04 1012.92 1012.65 1012.66 1012.94
1000.53 999.77 999.24 998.99 998.59 998.37 998.17 998.02 997.99 998.77 999.60 1000.31 1000.47 1003.15 1003.82 1003.62 1003.05 1003.15 1003.61 1004.03 1005.30 1004.59 1007.10 1008.90 1007.88 1008.01 1008.43 1008.99 1009.43 1009.84 1009.96 1010.09 1010.48 1010.67 1010.97 1011.69 1012.18 1012.69 1012.69 1012.63 1012.09 1012.38 1012.24 1012.35
1000.03 999.41 998.92 998.55 998.25 997.62 997.89 997.97 998.53 999.10 999.95 1000.72 1001.27 1003.08 1004.81 1004.86 1004.35 1003.77 1003.34 1006.09 1006.84 1011.12 1009.18 1010.28 1010.07 1008.60 1008.05 1008.44 1009.02 1009.43 1010.04 1010.24 1010.34 1010.70 1010.62 1011.31 1011.81 1012.15 1012.26 1012.32 1012.13 1012.14 1011.99 1011.93
999.56 998.74 998.42 997.91 997.32 997.27 997.55 998.21 998.91 999.59 1000.83 1002.00 1002.48 1003.36 1005.78 1005.58 1004.70 1004.35 1004.43 1006.99 1007.84 1008.41 1008.54 1009.87 1009.48 1008.91 1008.12 1008.56 1009.08 1009.52 1009.88 1010.46 1010.21 1010.55 1010.61 1011.00 1011.45 1011.75 1011.97 1012.15 1012.07 1011.93 1011.77 1011.70
999.60 998.69 997.95 997.46 997.47 997.33 997.82 999.09 1000.31 1001.52 1002.52 1003.07 1003.05 1004.48 1005.58 1005.49 1005.05 1004.52 1006.31 1008.12 1008.26 1008.72 1008.32 1008.56 1008.27 1008.81 1008.90 1008.87 1009.52 1010.02 1010.11 1010.64 1010.50 1010.70 1010.79 1010.90 1011.22 1011.39 1011.60 1011.81 1011.99 1011.94 1011.73 1011.38
999.91 998.94 997.84 997.24 997.20 997.53 998.21 999.46 1000.60 1001.92 1002.82 1003.06 1004.14 1004.90 1005.67 1005.28 1005.16 1005.53 1005.91 1008.46 1009.43 1009.13 1008.72 1008.42 1008.89 1009.67 1008.85 1009.39 1009.79 1010.42 1010.84 1010.98 1010.91 1011.03 1011.04 1011.01 1011.13 1011.41 1011.61 1011.67 1011.73 1011.71 1011.54 1011.26
999.48 998.68 997.50 996.95 996.71 997.29 998.04 998.97 999.80 1001.37 1002.09 1003.41 1005.25 1006.20 1006.09 1006.15 1006.20 1006.10 1005.67 1008.80 1010.22 1009.46 1009.13 1008.70 1010.25 1010.43 1008.03 1009.38 1009.95 1010.39 1011.05 1011.19 1011.09 1011.16 1010.96 1010.98 1011.16 1011.39 1011.60 1011.47 1011.53 1011.50 1011.32 1011.14
998.78 999.16 997.58 996.87 996.63 996.89 997.59 998.62 999.91 1001.37 1002.99 1004.84 1006.52 1006.26 1006.39 1007.40 1007.77 1007.15 1007.54 1008.39 1009.10 1009.60 1010.43 1010.36 1011.08 1010.27 1009.47 1009.97 1010.50 1010.62 1010.60 1010.71 1010.96 1010.86 1010.77 1010.67 1010.72 1011.11 1011.27 1011.24 1011.41 1011.38 1011.13 1011.09
998.35 999.27 998.10 997.30 996.85 997.35 997.99 998.79 999.99 1001.14 1002.80 1004.69 1007.29 1008.12 1007.11 1006.82 1008.68 1008.40 1010.20 1010.70 1010.35 1009.87 1010.68 1010.60 1010.07 1010.40 1010.42 1010.52 1010.87 1011.12 1011.83 1011.66 1011.96 1011.69 1011.29 1011.41 1011.57 1011.47 1011.68 1012.30 1012.33 1012.14 1011.74 1011.38
997.76 998.51 998.68 998.02 996.57 997.01 997.61 998.49 999.61 1001.63 1003.12 1004.40 1006.19 1009.05 1009.20 1008.54 1009.30 1010.59 1011.64 1011.93 1011.89 1009.57 1010.14 1010.68 1010.52 1010.92 1011.30 1011.88 1012.01 1012.45 1012.07 1012.29 1012.43 1012.46 1012.37 1012.32 1012.09 1012.40 1011.98 1012.36 1012.46 1012.38 1012.21 1012.06
997.29 998.38 999.03 998.54 997.62 997.13 997.48 998.16 999.19 1000.73 1002.72 1005.30 1006.81 1010.18 1010.25 1009.42 1009.58 1010.16 1010.44 1011.80 1013.23 1011.50 1011.81 1011.70 1011.47 1012.04 1012.74 1013.21 1012.97 1012.61 1012.50 1012.65 1013.15 1013.05 1013.08 1013.13 1012.80 1012.89 1012.81 1013.14 1013.13 1013.03 1012.91 1012.65
996.51 997.95 999.15 999.48 999.30 999.13 998.22 998.15 999.53 1000.92 1003.38 1005.43 1007.12 1008.86 1010.24 1010.44 1010.19 1009.82 1010.50 1012.64 1013.88 1012.52 1012.56 1012.35 1012.58 1013.18 1013.85 1013.18 1012.96 1013.03 1013.17 1013.42 1013.67 1013.74 1014.05 1013.99 1013.66 1013.57 1013.60 1013.54 1013.48 1013.36 1013.24 1012.99
996.77 998.19 999.28 999.86 999.88 999.43 999.34 998.91 999.35 1000.58 1002.09 1004.33 1006.17 1006.85 1007.56 1008.41 1009.51 1009.85 1010.85 1013.29 1013.94 1012.66 1012.34 1012.97 1013.43 1013.85 1013.25 1013.23 1013.35 1013.44 1013.78 1014.16 1014.25 1014.44 1014.53 1014.43 1014.23 1014.15 1014.03 1013.85 1013.65 1013.58 1013.57 1013.43
996.90 998.42 999.26 1000.03 999.85 998.88 1000.29 999.07 999.47 1000.50 1001.73 1004.12 1005.28 1006.68 1006.72 1006.82 1008.57 1010.32 1011.52 1011.45 1011.48 1012.24 1012.54 1012.69 1012.81 1013.01 1013.23 1013.72 1013.97 1014.02 1014.33 1014.50 1014.68 1015.01 1015.09 1014.99 1014.75 1014.52 1014.35 1014.25 1014.22 1014.20 1013.98 1013.63
997.41 998.62 999.61 1000.10 1000.07 1000.20 1000.28 999.25 999.18 1000.40 1001.35 1003.25 1004.97 1005.47 1006.33 1006.80 1007.56 1008.95 1009.69 1010.13 1010.67 1010.88 1011.24 1011.96 1012.78 1012.94 1013.53 1013.87 1014.10 1014.42 1014.68 1014.86 1015.08 1015.28 1015.36 1015.30 1015.13 1015.12 1015.10 1014.91 1014.77 1014.51 1014.21 1013.83
997.05 998.55 999.32 1000.04 1000.44 1001.07 1000.47 998.74 999.34 1000.15 1002.20 1003.20 1003.70 1004.52 1005.54 1006.00 1006.95 1007.64 1008.39 1009.06 1010.05 1010.73 1011.50 1012.20 1012.48 1013.08 1013.59 1013.92 1014.29 1014.67 1015.00 1015.31 1015.56 1015.77 1015.91 1015.85 1015.72 1015.57 1015.29 1015.07 1014.99 1014.77 1014.50 1014.20
996.50 998.02 999.34 1000.23 1001.37 1001.04 1002.31 1000.68 999.41 999.69 1002.10 1003.65 1003.70 1004.72 1005.52 1006.19 1007.29 1008.54 1008.79 1009.44 1010.46 1011.40 1012.05 1012.51 1013.02 1013.63 1013.99 1014.39 1014.76 1015.20 1015.68 1015.99 1016.28 1016.52 1016.45 1016.24 1016.00 1015.91 1015.70 1015.48 1015.22 1014.93 1014.66 1014.35
996.35 997.36 999.19 999.89 1001.22 1002.01 1001.63 1001.74 999.84 1000.65 1002.68 1002.91 1003.72 1004.96 1005.85 1006.84 1008.51 1009.69 1009.64 1010.25 1011.19 1012.02 1012.57 1013.06 1013.63 1014.21 1014.60 1015.07 1015.28 1015.88 1016.39 1016.63 1016.88 1016.87 1016.71 1016.48 1016.32 1016.12 1015.84 1015.64 1015.32 1015.07 1014.82 1014.48
997.21 998.04 999.41 1000.41 1001.29 1002.08 1001.85 1001.54 1000.91 1001.93 1003.57 1002.83 1003.65 1004.78 1005.88 1007.07 1007.79 1009.40 1010.20 1011.10 1011.85 1012.58 1013.11 1013.62 1014.20 1014.83 1015.25 1015.43 1015.69 1016.37 1016.68 1017.06 1017.15 1017.00 1016.70 1016.49 1016.22 1016.04 1015.95 1015.76 1015.47 1015.25 1014.97 1014.57
997.62 998.80 999.86 1000.82 1001.93 1002.37 1001.76 1001.46 1001.50 1002.01 1002.24 1002.00 1004.01 1004.83 1006.28 1007.33 1008.65 1009.85 1010.95 1011.89 1012.54 1013.24 1013.80 1014.28 1014.96 1015.56 1015.66 1015.83 1016.07 1016.66 1017.01 1017.02 1016.92 1016.79 1016.62 1016.48 1016.07 1016.11 1015.81 1015.69 1015.61 1015.43 1015.25 1014.81
998.30 998.71 1000.04 1000.82 1001.19 1001.03 1001.31 1001.45 1001.36 1001.20 1001.08 1003.04 1004.10 1005.30 1006.33 1007.90 1009.27 1010.44 1011.60 1012.55 1013.28 1013.82 1014.44 1014.89 1015.55 1016.02 1016.09 1016.21 1016.36 1016.92 1017.09 1016.98 1016.89 1016.80 1016.62 1016.47 1016.15 1016.05 1015.92 1015.76 1015.70 1015.46 1015.29 1015.19
999.57 999.24 1000.06 1000.39 1001.89 1001.69 1001.40 1001.88 1001.67 1001.72 1002.21 1003.50 1004.44 1005.58 1006.91 1008.21 1009.55 1010.81 1011.98 1013.07 1013.76 1014.43 1015.10 1015.53 1016.02 1016.45 1016.69 1016.60 1016.74 1016.93 1016.94 1016.79 1016.76 1016.73 1016.67 1016.60 1016.57 1016.48 1016.20 1015.77 1015.53 1015.44 1015.42 1015.31
1002.76 1001.68 1001.56 1001.11 1001.46 1002.36 1002.72 1002.46 1002.05 1002.29 1003.07 1004.18 1005.13 1006.19 1007.44 1008.55 1010.03 1011.16 1012.58 1013.55 1014.25 1014.94 1015.57 1015.92 1016.48 1016.79 1016.95 1016.85 1016.93 1016.87 1016.85 1016.76 1016.79 1016.70 1016.49 1016.41 1016.35 1016.19 1016.08 1015.80 1015.40 1015.33 1014.95 1014.98
1004.80 1004.20 1003.53 1002.63 1002.09 1001.99 1002.43 1002.19 1002.34 1003.12 1004.22 1005.17 1006.13 1007.38 1008.36 1009.16 1010.46 1011.69 1013.11 1013.85 1014.63 1015.36 1015.83 1016.34 1016.67 1016.83 1016.92 1016.96 1017.09 1017.02 1016.83 1016.69 1016.74 1016.67 1016.52 1016.17 1016.07 1015.89 1015.76 1015.56 1015.15 1014.63 1014.52 1014.47
Wind_Speed
10 4 10 14 8 5 6 9 13 10 16 15 13 15 19 18 16 15 14 13 12 13 12 9 11 16 11 7 8 9 9 11 10 5 4 3 4 5 3 4 7 7 8 7
9 11 15 15 12 11 14 13 6 9 9 5 13 19 20 19 16 17 18 16 17 14 15 16 10 14 15 15 14 9 10 11 10 7 4 4 3 3 4 4 5 7 8 8
11 14 16 17 10 7 9 1 1 3 4 3 5 11 15 16 10 15 17 19 17 17 17 11 10 14 17 14 12 12 10 12 10 8 4 2 2 0 1 3 4 7 8 8
9 18 18 14 7 6 9 2 1 6 7 6 6 2 5 3 4 10 2 12 4 9 15 9 2 7 11 15 13 12 10 10 8 8 4 6 4 4 4 3 4 5 7 7
13 13 13 15 15 9 3 6 7 7 4 3 7 8 2 7 5 6 6 13 26 20 17 20 19 5 4 6 12 12 7 8 7 7 6 3 3 2 2 2 6 4 5 7
10 12 12 15 15 9 3 1 4 5 2 4 8 6 4 4 7 4 7 22 23 23 21 11 25 12 7 5 4 11 9 5 7 6 5 3 3 4 2 3 3 3 3 5
11 14 12 13 7 3 5 3 3 5 4 7 3 9 8 8 7 9 14 18 19 22 23 22 24 9 9 5 11 10 8 6 5 5 3 3 1 2 2 2 2 5 3 2
7 10 9 11 10 7 8 8 7 5 4 4 5 6 1 5 8 9 8 21 22 22 18 19 17 5 6 14 11 10 7 6 6 6 5 4 3 2 2 1 1 3 2 3
7 10 10 12 6 6 4 2 9 4 6 1 3 3 3 9 2 7 10 24 19 16 12 4 5 8 13 13 10 10 8 6 7 6 5 4 3 2 3 2 2 3 4 3
14 4 11 12 7 5 7 5 4 5 1 5 4 3 4 4 2 4 12 17 13 8 8 6 6 5 7 11 9 8 8 7 6 6 2 4 5 3 5 4 5 6 6 4
11 4 19 7 6 8 3 5 5 1 4 6 5 6 5 3 5 7 15 10 18 17 12 9 14 11 10 9 6 6 8 8 7 7 8 11 8 9 10 9 7 8 10 9
14 5 7 13 11 13 11 10 8 6 9 1 6 1 8 7 6 13 8 7 7 12 11 7 9 12 9 10 7 8 8 10 9 7 7 7 7 7 8 7 9 10 12 11
9 5 7 10 9 12 10 7 5 6 6 3 4 5 3 11 12 17 10 9 3 10 11 6 8 9 7 6 8 9 10 9 9 8 7 9 12 12 12 11 11 11 11 9
9 4 4 5 4 6 5 8 8 9 6 2 3 9 9 14 14 17 14 10 7 12 11 8 7 5 1 4 7 7 8 7 6 8 10 9 10 9 8 7 9 9 9 10
3 3 3 11 10 6 7 6 10 9 5 5 6 6 9 12 8 22 17 14 16 14 11 8 6 6 4 5 6 7 6 9 8 7 8 7 7 7 8 9 9 9 9 9
2 2 3 4 8 14 16 4 3 11 12 11 12 5 5 6 9 17 21 15 14 13 12 10 8 6 4 6 7 7 7 6 7 7 6 6 7 8 9 11 10 7 9 9
7 6 4 3 6 7 5 9 5 13 14 21 9 9 8 2 13 11 13 14 14 10 8 7 7 6 10 8 7 7 7 8 7 7 8 10 10 9 7 7 7 8 7 7
8 5 3 4 2 5 6 9 17 13 15 10 12 9 8 11 9 10 11 11 11 10 9 8 7 9 9 8 9 9 7 8 9 10 10 8 7 8 8 8 8 9 9 9
10 6 3 5 3 12 14 9 5 8 11 17 16 15 15 14 12 8 10 10 10 9 7 6 9 8 9 9 8 8 10 10 10 8 7 8 8 8 9 9 9 8 7 9
9 7 7 2 14 7 5 7 10 12 5 15 19 15 19 15 8 4 10 10 11 10 7 7 9 10 9 7 7 10 8 8 7 7 7 6 7 7 6 6 8 7 6 9
8 4 8 4 5 3 6 2 5 10 6 7 12 16 16 6 7 10 13 11 11 9 7 9 10 9 7 7 8 8 7 7 5 4 4 3 5 6 6 7 6 7 7 7
8 6 3 6 5 2 3 3 8 9 7 11 13 18 18 18 16 14 13 12 10 9 9 8 8 7 7 7 7 7 7 3 2 5 5 4 3 3 4 9 8 7 9 9
5 5 7 3 7 6 4 7 5 2 9 12 17 16 19 17 16 15 13 10 9 9 7 7 7 8 6 6 5 7 2 2 4 5 6 4 5 5 3 8 9 6 6 6
5 2 7 8 4 7 5 2 2 6 13 15 17 15 16 16 15 15 13 10 8 8 7 7 8 7 6 6 7 4 2 1 4 5 3 4 5 6 5 4 3 4 3 3
5 8 5 6 7 7 7 8 9 14 16 14 10 14 14 17 15 15 12 9 8 7 7 7 7 6 5 6 6 5 4 4 5 5 3 1 2 2 2 3 3 2 2 3
3 5 4 4 6 4 6 8 14 16 12 13 15 15 14 17 16 14 10 8 7 7 6 6 6 6 4 5 5 4 5 4 5 5 3 4 3 3 3 3 5 7 8 6
Wind_Direction
244 227 236 257 257 283 238 187 224 239 173 162 175 174 175 181 184 178 167 172 174 165 168 162 157 161 164 175 192 174 163 163 167 164 161 171 181 200 212 209 205 200 203 195
253 239 248 263 273 187 234 218 253 167 154 150 147 174 182 188 191 181 171 180 177 179 163 164 151 161 173 185 185 174 174 164 168 160 172 169 164 199 206 205 219 208 208 204
222 244 242 249 258 254 268 220 160 183 145 259 176 188 178 200 181 184 181 185 180 175 159 163 159 169 176 184 186 187 184 173 170 167 152 161 119 234 183 220 219 222 205 203
233 243 257 261 235 247 253 105 39 223 138 211 184 131 7 327 126 159 118 198 350 125 110 23 161 159 155 190 186 190 184 165 173 177 175 175 172 197 215 225 234 228 208 211
248 245 242 259 252 244 199 48 262 286 225 355 296 87 239 348 357 279 263 100 117 81 40 357 311 265 190 150 177 179 159 158 169 177 173 162 191 230 269 285 286 307 213 212
235 247 239 242 261 227 237 72 288 312 34 349 296 102 268 222 209 280 272 114 120 125 122 229 268 274 204 176 133 138 135 152 123 144 169 190 241 256 264 294 301 285 255 229
273 252 260 254 226 257 62 28 319 339 356 224 18 61 233 226 239 220 117 124 133 140 150 201 224 245 206 148 136 126 121 128 120 129 144 159 197 268 270 311 298 305 302 262
237 275 245 263 225 190 177 184 171 232 200 227 110 146 213 212 266 347 357 156 148 159 186 195 211 288 188 129 119 119 118 124 123 107 89 81 60 49 2 352 308 303 296 309
211 250 264 240 193 207 242 279 228 275 310 56 78 82 44 48 148 289 303 150 183 190 214 130 72 236 102 103 101 105 108 121 133 143 151 146 179 231 254 277 289 290 291 285
257 311 240 256 192 241 164 228 330 326 229 63 346 48 179 52 280 357 29 22 123 97 82 98 148 109 80 105 112 106 132 148 136 157 144 201 207 227 222 232 260 264 263 267
241 192 276 247 178 180 226 251 256 178 167 145 147 280 269 50 10 59 30 48 304 89 69 62 75 60 50 51 65 84 51 64 44 41 54 44 43 52 55 40 25 15 5 341
216 200 238 238 191 209 206 205 191 135 290 31 111 272 340 153 114 55 346 322 360 87 95 80 62 75 66 61 47 25 54 46 31 27 35 34 46 25 40 23 10 12 10 2
203 247 266 295 244 236 211 210 230 121 81 25 87 120 18 116 125 146 201 258 336 133 110 67 46 41 37 46 56 51 39 34 23 23 15 30 36 31 32 30 18 13 5 351
150 216 161 218 114 7 324 184 113 117 93 147 82 133 190 204 151 173 195 177 253 122 123 89 88 66 109 70 71 68 54 44 43 32 48 36 31 26 18 12 9 2 354 352
122 177 132 86 86 69 325 343 108 104 149 104 175 123 227 215 151 185 182 211 169 129 119 132 148 187 147 115 93 76 67 52 53 53 44 28 23 17 15 8 4 358 358 352
144 225 132 117 132 112 256 273 243 124 128 112 135 151 267 331 97 148 176 153 122 130 138 148 145 166 160 93 83 66 75 69 67 58 39 33 28 11 8 8 0 358 349 345
172 156 153 225 190 206 223 229 201 116 137 143 166 212 162 181 106 123 127 124 129 129 119 115 127 98 98 89 77 61 62 60 53 44 30 25 22 19 7 347 341 337 333 331
172 189 175 195 80 181 313 15 99 94 135 165 132 137 153 103 94 83 98 98 84 84 80 76 72 71 75 72 63 63 56 54 46 33 26 17 6 351 341 341 354 352 348 341
168 175 228 114 305 86 326 358 32 98 107 144 125 122 113 107 91 72 96 94 100 100 84 82 94 89 72 69 61 63 57 49 39 18 5 350 339 348 353 350 345 338 339 343
185 181 142 1 159 170 163 315 52 99 77 126 128 135 134 128 124 171 113 105 91 86 73 73 90 86 74 67 65 77 64 53 27 359 353 356 350 337 325 330 338 337 334 337
195 225 197 180 86 95 135 279 70 80 198 122 135 147 151 137 150 133 101 89 93 100 78 81 83 88 83 61 66 85 75 57 7 352 351 335 342 351 10 352 349 351 347 338
166 137 175 100 96 182 196 38 104 193 158 116 106 113 109 112 113 109 99 92 88 83 76 85 86 89 75 63 65 96 87 88 354 320 321 314 17 346 25 18 14 7 5 354
148 166 142 114 177 131 128 156 226 182 109 114 116 119 124 120 116 111 106 101 91 89 81 74 95 86 70 58 58 99 120 58 322 321 331 26 3 342 27 27 18 13 11 6
48 27 113 103 292 104 81 338 242 144 98 116 124 128 124 125 121 118 116 105 98 91 85 76 79 80 64 46 66 104 139 135 321 310 350 48 40 7 12 2 9 0 3 332
351 337 334 54 57 98 210 163 114 86 91 95 91 113 121 117 111 109 108 104 104 100 96 89 91 88 74 65 67 42 0 358 339 337 37 345 127 99 1 329 289 308 271 222
3 3 11 200 170 135 152 113 102 96 93 87 89 89 89 107 108 106 106 103 103 104 98 96 100 97 88 73 71 19 340 338 331 332 310 296 225 215 207 248 289 277 243 223